Powrót do katalogu

QPS-SAR-13

AktywnyVLEO
NORAD 100243·PAYLOAD·🇯🇵 Japan

Wystrzelony Aug 6, 2026 z Rocket Lab Launch Complex 1

Loading…

Następne Przeloty (najbliższe 24 godziny)

TLE

ŚwieżeSource: Space-Track

Epoka: Sep 14, 2026, 03:59 UTC

1 A0243U 26180A   26257.16641640  .00001518  00000-0  14364-3 0  9992
2 A0243  42.0017 176.6277 0007886 171.9573 188.1379 14.97396097  5820

Śledź QPS-SAR-13 w czasie rzeczywistym z AllMySat

Download on the App Store